DW3693 Weather Reports


Display with metric or nautical units.
time (UTC)temp
F
wind
direction
speed
MPH
gust
MPH
rain 1hr
in
rain 24hr
in
rain mn
in
humidity
%
barometer
mb
20260904025147 57 270 2.0 4.0 0.00 0.01 0.01 80 1009.7
20260904024030 58 248 1.0 9.0 0.00 0.01 0.01 81 1009.4
20260904023046 58 248 3.0 7.0 0.00 0.01 0.01 80 1009.3
20260904022047 58 270 3.0 6.0 0.00 0.01 0.01 80 1009.2
20260904021022 58 248 2.0 8.0 0.00 0.01 0.01 81 1009.3
20260904020020 58 293 3.0 7.0 0.00 0.03 0.01 80 1009.3
20260904015120 58 270 2.0 10.0 0.00 0.09 0.01 80 1009.3
20260904014121 58 248 3.0 11.0 0.00 0.09 0.01 79 1009.3
20260904013021 59 248 3.0 8.0 0.00 0.09 0.01 77 1009.2
20260904012046 59 270 3.0 10.0 0.00 0.09 0.01 76 1009.4
20260904011017 59 0.0 0.0 0.00 0.09 0.01 75 1009.3
20260904010017 60 0.0 1.0 0.00 0.10 0.01 75 1009.4
20260904005022 60 0.0 1.0 0.00 0.10 0.01 74 1009.3
20260904004017 61 270 2.0 6.0 0.00 0.11 0.01 73 1009.3
20260904003017 61 0 2.0 11.0 0.00 0.11 0.01 73 1009.3
20260904002034 61 180 1.0 3.0 0.00 0.11 0.01 73 1009.2
20260904001022 61 270 3.0 7.0 0.00 0.12 0.01 73 1009.3
20260904000017 62 225 1.0 7.0 0.00 0.13 0.01 79 1009.2
20260903235017 59 270 3.0 9.0 0.00 0.14 0.01 80 1009.2
20260903234017 58 293 2.0 6.0 0.00 0.14 0.01 82 1009.2
20260903233017 58 315 3.0 6.0 0.00 0.15 0.01 80 1009.2
20260903232017 59 293 5.0 13.0 0.00 0.15 0.01 74 1009.4
20260903231037 60 248 4.0 13.0 0.00 0.15 0.01 74 1009.4
20260903230017 60 270 4.0 16.0 0.00 0.15 0.01 72 1009.5
20260903225051 61 248 4.0 10.0 0.00 0.15 0.01 72 1009.5
20260903224134 61 248 3.0 10.0 0.00 0.15 0.01 71 1009.6
20260903223047 60 225 3.0 7.0 0.00 0.16 0.01 73 1009.6
20260903222020 61 0 3.0 9.0 0.00 0.16 0.01 74 1009.6
20260903221026 61 293 4.0 13.0 0.00 0.17 0.01 73 1009.4
20260903220024 61 293 4.0 12.0 0.00 0.17 0.01 72 1009.6
20260903215042 60 270 5.0 12.0 0.00 0.17 0.01 72 1009.6
20260903214020 63 293 4.0 13.0 0.00 0.18 0.01 64 1009.6
20260903213022 66 315 4.0 10.0 0.00 0.19 0.01 62 1009.5
20260903212149 67 248 2.0 6.0 0.00 0.19 0.01 58 1009.5
20260903211023 66 113 1.0 4.0 0.00 0.20 0.01 57 1009.6
20260903210024 66 68 1.0 3.0 0.00 0.20 0.01 56 1009.5
20260903205131 65 270 1.0 2.0 0.00 0.21 0.01 61 1009.5
20260903204119 66 90 2.0 4.0 0.00 0.21 0.01 59 1009.7
20260903203023 63 90 1.0 3.0 0.00 0.22 0.01 62 1009.8
20260903202025 63 68 2.0 4.0 0.00 0.22 0.01 62 1009.9
20260903201035 63 45 2.0 4.0 0.00 0.23 0.01 63 1010.1
20260903200046 65 270 2.0 5.0 0.00 0.23 0.01 65 1010.1
20260903195016 64 23 2.0 5.0 0.00 0.23 0.01 63 1010.1
20260903194048 63 113 1.0 4.0 0.00 0.23 0.01 69 1010.3
20260903193017 63 293 2.0 5.0 0.00 0.24 0.01 68 1010.3
20260903192017 63 68 2.0 5.0 0.00 0.24 0.01 64 1010.5
20260903191100 62 158 1.0 3.0 0.00 0.24 0.01 66 1010.5
20260903190017 62 23 1.0 3.0 0.00 0.24 0.01 64 1010.7
20260903185016 62 45 1.0 3.0 0.00 0.24 0.01 66 1010.8
20260903184016 61 45 1.0 2.0 0.00 0.24 0.01 73 1010.9
20260903183022 61 315 2.0 5.0 0.00 0.24 0.01 75 1010.9
20260903182022 60 113 2.0 5.0 0.00 0.24 0.01 77 1010.9
20260903181016 59 90 2.0 5.0 0.00 0.24 0.01 82 1010.9
20260903180021 58 68 1.0 4.0 0.00 0.24 0.01 83 1010.9
20260903175037 58 225 1.0 3.0 0.00 0.24 0.01 88 1011.0
20260903174016 56 113 1.0 4.0 0.00 0.24 0.01 90 1010.9
20260903173016 55 113 1.0 3.0 0.00 0.24 0.01 91 1010.9
20260903172016 55 0.0 2.0 0.00 0.24 0.01 92 1011.1
20260903171149 55 0.0 0.0 0.00 0.24 0.01 93 1011.1
20260903170017 54 0.0 2.0 0.00 0.24 0.01 93 1011.2
20260903165026 53 0.0 0.0 0.00 0.24 0.01 93 1011.3
20260903164118 53 0.0 2.0 0.00 0.24 0.01 94 1011.4
20260903163016 53 0.0 0.0 0.00 0.24 0.01 93 1011.0
20260903162016 52 0.0 0.0 0.00 0.24 0.01 94 1010.9
20260903161022 52 0.0 0.0 0.00 0.24 0.01 94 1011.0
20260903160041 52 0.0 0.0 0.00 0.24 0.01 94 1011.2
20260903155018 52 0.0 0.0 0.00 0.24 0.01 94 1011.1
20260903154056 52 0.0 0.0 0.00 0.24 0.01 94 1011.2
20260903153022 51 0.0 0.0 0.00 0.24 0.01 94 1011.0
20260903152101 51 0.0 0.0 0.00 0.24 0.01 94 1011.1
20260903151039 51 0.0 0.0 0.00 0.24 0.01 94 1011.1
20260903150034 51 0.0 0.0 0.00 0.24 0.01 94 1011.0
20260903145015 51 0.0 0.0 0.00 0.24 0.01 94 1010.9
20260903144021 51 0.0 0.0 0.00 0.24 0.01 94 1010.8
20260903143021 51 0.0 0.0 0.00 0.24 0.01 94 1010.9
20260903142021 50 0.0 0.0 0.00 0.24 0.01 94 1010.7
20260903141047 50 0.0 0.0 0.00 0.24 0.01 94 1010.7
20260903140045 49 0.0 0.0 0.00 0.24 0.01 94 1010.7
20260903135015 49 0.0 0.0 0.00 0.24 0.01 94 1010.7
20260903134015 48 0.0 0.0 0.00 0.24 0.01 94 1010.5
20260903133029 48 0.0 1.0 0.00 0.24 0.01 94 1010.4
20260903132119 49 0.0 0.0 0.00 0.24 0.01 94 1010.4
20260903131517 49 0.0 0.0 0.00 0.24 0.01 94 1010.3
20260903130558 49 0.0 0.0 0.00 0.24 0.01 94 1010.3
20260903125523 49 0.0 0.0 0.00 0.24 0.01 94 1010.1
20260903124516 49 0.0 0.0 0.00 0.24 0.01 94 1010.2
20260903123517 49 0.0 0.0 0.00 0.24 0.01 94 1010.3
20260903122522 49 0.0 1.0 0.00 0.24 0.01 94 1010.3
20260903121615 49 0.0 2.0 0.00 0.24 0.01 94 1010.3
20260903120523 49 0.0 1.0 0.00 0.24 0.01 94 1010.4
20260903115516 49 0.0 1.0 0.00 0.24 0.01 94 1010.2
20260903114517 50 0.0 3.0 0.00 0.24 0.01 94 1010.3
20260903113517 50 0.0 0.0 0.00 0.24 0.01 94 1010.3
20260903112517 50 0.0 0.0 0.00 0.24 0.01 94 1010.3
20260903111523 51 0.0 0.0 0.00 0.24 0.01 94 1010.3
20260903110517 51 0.0 1.0 0.00 0.24 0.01 94 1010.0
20260903105538 51 0.0 1.0 0.00 0.24 0.01 94 1010.0
20260903104523 52 0.0 0.0 0.00 0.24 0.01 94 1010.0
20260903103517 52 0.0 0.0 0.00 0.24 0.01 94 1009.9
20260903102522 51 0.0 0.0 0.00 0.24 0.01 94 1009.8
20260903101518 52 0.0 0.0 0.00 0.24 0.01 93 1009.7
20260903100522 52 0.0 2.0 0.00 0.24 0.01 93 1009.8
20260903095525 52 0.0 1.0 0.00 0.24 0.01 94 1009.8
20260903094521 52 0.0 0.0 0.00 0.24 0.01 93 1009.7
20260903093517 52 0.0 1.0 0.00 0.24 0.01 93 1009.7
20260903092522 53 0.0 1.0 0.00 0.24 0.01 93 1009.8
20260903091517 53 0.0 1.0 0.00 0.24 0.01 93 1009.7
20260903090517 52 0.0 1.0 0.01 0.24 0.01 93 1009.7
20260903085517 52 0.0 1.0 0.01 0.24 0.01 93 1009.8
20260903084537 53 0.0 1.0 0.01 0.24 0.01 93 1009.9
20260903083516 53 0.0 0.0 0.01 0.24 0.01 93 1009.8
20260903082516 53 0.0 0.0 0.01 0.24 0.01 93 1009.7
20260903081517 53 0.0 0.0 0.01 0.24 0.01 93 1009.7
20260903080517 54 0.0 2.0 0.00 0.23 0.00 93 1009.6
20260903075517 53 270 1.0 3.0 0.00 0.23 0.00 93 1009.6
20260903074516 53 0.0 0.0 0.00 0.23 0.00 93 1009.7
20260903073647 53 0.0 2.0 0.00 0.23 0.00 93 1009.4
20260903072520 53 248 1.0 2.0 0.00 0.23 0.00 93 1009.2
20260903071521 53 0.0 2.0 0.00 0.23 0.00 93 1009.1
20260903070638 53 0.0 2.0 0.00 0.23 0.00 93 1009.2
20260903065526 53 0.0 2.0 0.00 0.23 0.23 93 1009.2
20260903064516 53 225 1.0 2.0 0.00 0.23 0.23 93 1009.4
20260903063541 54 0.0 1.0 0.00 0.23 0.23 93 1009.3
20260903062522 54 0.0 2.0 0.00 0.23 0.23 93 1009.4
20260903061516 54 0.0 0.0 0.00 0.23 0.23 93 1009.4
20260903060547 54 0.0 0.0 0.00 0.23 0.23 92 1009.2
20260903055517 54 203 2.0 5.0 0.00 0.23 0.23 93 1009.3
20260903054516 54 0.0 0.0 0.00 0.23 0.23 92 1009.1
20260903053516 54 0.0 0.0 0.00 0.23 0.23 92 1009.1
20260903052516 55 0.0 2.0 0.00 0.23 0.23 92 1009.2
20260903051522 55 0.0 1.0 0.00 0.23 0.23 92 1009.1
20260903050613 55 203 1.0 3.0 0.00 0.23 0.23 92 1009.0
20260903045516 55 0.0 0.0 0.00 0.23 0.23 92 1008.8
20260903044516 55 0.0 0.0 0.00 0.23 0.23 92 1008.7
20260903043614 55 0.0 0.0 0.00 0.23 0.23 91 1008.8
20260903042517 55 0.0 0.0 0.00 0.23 0.23 90 1008.7
20260903041543 56 248 1.0 4.0 0.00 0.23 0.23 90 1008.4
20260903040522 56 248 3.0 6.0 0.00 0.23 0.23 90 1008.3
20260903035540 56 248 2.0 9.0 0.00 0.23 0.23 90 1008.2
20260903034523 56 248 1.0 2.0 0.00 0.23 0.23 90 1007.8
20260903033522 56 248 1.0 2.0 0.00 0.23 0.23 90 1008.0
20260903032523 56 135 1.0 6.0 0.00 0.23 0.23 90 1007.8
20260903031523 56 248 2.0 7.0 0.00 0.23 0.23 91 1007.8
20260903030521 56 293 2.0 6.0 0.00 0.23 0.23 91 1007.6